• In France
  • List of Countries
  • For 7 days
  • Water Temperature
  • Satellite Maps
  • Weather Map
  • Weather Widgets
  • user-avatar
    Login

    Hourly Weather Dumfries

    Today, 18 January, Thursday

    Time Temperature Precipitation Wind Pressure Humidity
    00:00 +2°C° 0.1 mm 1 mps 738 mmHg 94%
    01:00 +2°C° 0.1 mm 1 mps 738 mmHg 94%
    02:00 +2°C° 0.1 mm 1 mps 738 mmHg 94%
    03:00 +2°C° 0.1 mm 1 mps 738 mmHg 94%
    04:00 +1°C° 0.1 mm 2 mps 739 mmHg 94%
    05:00 +1°C° 0.1 mm 2 mps 739 mmHg 94%
    06:00 +1°C° 0.1 mm 2 mps 740 mmHg 94%
    07:00 +1°C° 0.2 mm 2 mps 740 mmHg 94%
    08:00 +1°C° 0.2 mm 2 mps 740 mmHg 93%
    09:00 0°C° 0.2 mm 3 mps 740 mmHg 93%
    10:00 +1°C° 0 mm 3 mps 741 mmHg 90%
    11:00 +2°C° 0 mm 3 mps 742 mmHg 86%
    12:00 +2°C° 0 mm 3 mps 742 mmHg 83%
    13:00 +1°C° 0 mm 4 mps 743 mmHg 82%
    14:00 +1°C° 0 mm 4 mps 743 mmHg 82%
    15:00 +1°C° 0 mm 4 mps 743 mmHg 81%
    16:00 0°C° 0 mm 4 mps 744 mmHg 82%
    17:00 0°C° 0 mm 4 mps 744 mmHg 83%
    18:00 -1°C° 0 mm 4 mps 745 mmHg 85%
    19:00 -1°C° 0 mm 4 mps 745 mmHg 85%
    20:00 -2°C° 0 mm 4 mps 745 mmHg 85%
    21:00 -2°C° 0 mm 4 mps 745 mmHg 86%
    22:00 -2°C° 0.1 mm 4 mps 745 mmHg 86%
    23:00 -2°C° 0.1 mm 4 mps 745 mmHg 86%

    Tomorrow, 19 January, Friday

    Time Temperature Precipitation Wind Pressure Humidity
    00:00 -2°C° 0.1 mm 4 mps 745 mmHg 86%
    01:00 -2°C° 0.2 mm 4 mps 745 mmHg 86%
    02:00 -1°C° 0.2 mm 4 mps 745 mmHg 86%
    03:00 -1°C° 0.2 mm 4 mps 745 mmHg 86%
    04:00 -1°C° 0.2 mm 4 mps 745 mmHg 86%
    05:00 -1°C° 0.2 mm 4 mps 745 mmHg 86%
    06:00 -2°C° 0.2 mm 4 mps 745 mmHg 86%
    07:00 -2°C° 0.2 mm 4 mps 744 mmHg 86%
    08:00 -1°C° 0.2 mm 4 mps 744 mmHg 85%
    09:00 -1°C° 0.2 mm 4 mps 744 mmHg 85%
    10:00 -1°C° 0.1 mm 4 mps 744 mmHg 82%
    11:00 0°C° 0.1 mm 4 mps 744 mmHg 79%
    12:00 0°C° 0.1 mm 4 mps 744 mmHg 76%
    13:00 0°C° 0.3 mm 5 mps 744 mmHg 77%
    14:00 0°C° 0.3 mm 5 mps 744 mmHg 77%
    15:00 0°C° 0.3 mm 5 mps 743 mmHg 78%
    16:00 0°C° 0.1 mm 5 mps 744 mmHg 78%
    17:00 -1°C° 0.1 mm 5 mps 744 mmHg 79%
    18:00 -2°C° 0.1 mm 4 mps 745 mmHg 80%
    19:00 -2°C° 0 mm 4 mps 745 mmHg 81%
    20:00 -2°C° 0 mm 4 mps 745 mmHg 82%
    21:00 -1°C° 0 mm 3 mps 746 mmHg 83%
    22:00 -1°C° 0.1 mm 3 mps 746 mmHg 83%
    23:00 -2°C° 0.1 mm 4 mps 746 mmHg 84%

    Day after tomorrow, 20 January, Saturday

    Time Temperature Precipitation Wind Pressure Humidity
    00:00 -2°C° 0.1 mm 4 mps 747 mmHg 84%
    01:00 -2°C° 0.1 mm 4 mps 747 mmHg 84%
    02:00 -2°C° 0.1 mm 4 mps 747 mmHg 84%
    03:00 -1°C° 0.1 mm 4 mps 747 mmHg 85%
    04:00 -1°C° 0.1 mm 4 mps 747 mmHg 85%
    05:00 -1°C° 0.1 mm 4 mps 747 mmHg 85%
    06:00 -1°C° 0.1 mm 4 mps 747 mmHg 85%
    07:00 -2°C° 0 mm 4 mps 748 mmHg 84%
    08:00 -1°C° 0 mm 3 mps 749 mmHg 84%
    09:00 -2°C° 0 mm 3 mps 749 mmHg 83%
    10:00 -1°C° 0 mm 3 mps 750 mmHg 81%
    11:00 0°C° 0 mm 3 mps 750 mmHg 78%
    12:00 +1°C° 0 mm 3 mps 751 mmHg 76%
    13:00 +1°C° 0 mm 3 mps 751 mmHg 77%
    14:00 +1°C° 0 mm 2 mps 752 mmHg 77%
    15:00 +1°C° 0 mm 2 mps 752 mmHg 78%
    16:00 -1°C° 0 mm 2 mps 753 mmHg 80%
    17:00 0°C° 0 mm 1 mps 753 mmHg 81%
    18:00 -1°C° 0 mm 1 mps 754 mmHg 82%
    19:00 -1°C° 0 mm 1 mps 754 mmHg 81%
    20:00 0°C° 0 mm 1 mps 755 mmHg 80%
    21:00 0°C° 0 mm 1 mps 755 mmHg 80%
    22:00 0°C° 0 mm 1 mps 754 mmHg 79%
    23:00 -1°C° 0 mm 2 mps 754 mmHg 79%

    21 January, Sunday

    Time Temperature Precipitation Wind Pressure Humidity
    00:00 -1°C° 0 mm 2 mps 754 mmHg 79%
    01:00 -1°C° 0.3 mm 2 mps 753 mmHg 81%
    02:00 -1°C° 0.3 mm 3 mps 753 mmHg 83%
    03:00 -2°C° 0.3 mm 4 mps 752 mmHg 85%
    04:00 -2°C° 0.9 mm 4 mps 751 mmHg 87%
    05:00 -1°C° 0.9 mm 5 mps 750 mmHg 89%
    06:00 -1°C° 0.9 mm 5 mps 749 mmHg 91%
    07:00 -1°C° 0.5 mm 5 mps 749 mmHg 93%
    08:00 0°C° 0.5 mm 4 mps 748 mmHg 94%
    09:00 0°C° 0.5 mm 4 mps 748 mmHg 95%
    10:00 +1°C° 0.6 mm 3 mps 747 mmHg 96%
    11:00 +2°C° 0.6 mm 3 mps 747 mmHg 97%
    12:00 +3°C° 0.6 mm 2 mps 747 mmHg 98%
    13:00 +3°C° 0.2 mm 3 mps 747 mmHg 98%
    14:00 +4°C° 0.2 mm 4 mps 747 mmHg 98%
    15:00 +4°C° 0.2 mm 4 mps 748 mmHg 98%
    16:00 +4°C° 0 mm 4 mps 749 mmHg 97%
    17:00 +3°C° 0 mm 4 mps 749 mmHg 95%
    18:00 +3°C° 0 mm 4 mps 750 mmHg 93%
    19:00 +2°C° 0 mm 3 mps 751 mmHg 93%
    20:00 +1°C° 0 mm 3 mps 752 mmHg 93%
    21:00 +2°C° 0 mm 2 mps 753 mmHg 92%
    22:00 +2°C° 0 mm 2 mps 753 mmHg 93%
    23:00 +2°C° 0 mm 2 mps 753 mmHg 93%

    22 January, Monday

    Time Temperature Precipitation Wind Pressure Humidity
    00:00 +2°C° 0 mm 2 mps 754 mmHg 94%
    01:00 +2°C° 0 mm 2 mps 754 mmHg 94%
    02:00 +2°C° 0 mm 2 mps 754 mmHg 94%
    03:00 +2°C° 0 mm 2 mps 754 mmHg 95%
    04:00 +2°C° 0 mm 2 mps 753 mmHg 95%
    05:00 +2°C° 0 mm 2 mps 753 mmHg 95%
    06:00 +2°C° 0 mm 2 mps 753 mmHg 95%
    07:00 +2°C° 0 mm 2 mps 752 mmHg 95%
    08:00 +2°C° 0 mm 2 mps 751 mmHg 94%
    09:00 +2°C° 0 mm 2 mps 751 mmHg 94%
    10:00 +2°C° 0.6 mm 2 mps 750 mmHg 95%
    11:00 +2°C° 0.6 mm 2 mps 748 mmHg 95%
    12:00 +2°C° 0.6 mm 3 mps 747 mmHg 96%
    13:00 +2°C° 1.7 mm 3 mps 746 mmHg 96%
    14:00 +2°C° 1.7 mm 3 mps 744 mmHg 97%
    15:00 +2°C° 1.7 mm 3 mps 743 mmHg 97%
    16:00 +2°C° 0.5 mm 3 mps 743 mmHg 96%
    17:00 +2°C° 0.5 mm 2 mps 743 mmHg 95%
    18:00 +2°C° 0.5 mm 2 mps 743 mmHg 95%
    19:00 +1°C° 0 mm 3 mps 744 mmHg 95%
    20:00 +1°C° 0 mm 3 mps 745 mmHg 95%
    21:00 +1°C° 0 mm 3 mps 745 mmHg 95%
    22:00 +1°C° 0.8 mm 4 mps 745 mmHg 96%
    23:00 +3°C° 0.8 mm 4 mps 745 mmHg 96%

    23 January, Tuesday

    Time Temperature Precipitation Wind Pressure Humidity
    00:00 +3°C° 0.8 mm 5 mps 745 mmHg 97%
    01:00 +3°C° 0.3 mm 6 mps 745 mmHg 95%
    02:00 +3°C° 0.3 mm 6 mps 745 mmHg 93%
    03:00 +4°C° 0.3 mm 6 mps 746 mmHg 91%
    04:00 +3°C° 0 mm 6 mps 747 mmHg 91%
    05:00 +3°C° 0 mm 6 mps 748 mmHg 91%
    06:00 +3°C° 0 mm 5 mps 749 mmHg 91%
    07:00 +3°C° 0 mm 5 mps 749 mmHg 91%
    08:00 +3°C° 0 mm 5 mps 750 mmHg 91%
    09:00 +3°C° 0 mm 5 mps 751 mmHg 92%
    10:00 +3°C° 0 mm 5 mps 751 mmHg 92%
    11:00 +4°C° 0 mm 6 mps 751 mmHg 91%
    12:00 +4°C° 0 mm 6 mps 751 mmHg 91%
    13:00 +5°C° 0.4 mm 6 mps 750 mmHg 91%
    14:00 +5°C° 0.4 mm 6 mps 749 mmHg 91%
    15:00 +5°C° 0.4 mm 6 mps 748 mmHg 91%
    16:00 +6°C° 1.2 mm 7 mps 747 mmHg 91%
    17:00 +7°C° 1.2 mm 8 mps 746 mmHg 91%
    18:00 +8°C° 1.2 mm 9 mps 745 mmHg 91%
    19:00 +8°C° 1.4 mm 10 mps 745 mmHg 90%
    20:00 +8°C° 1.4 mm 10 mps 745 mmHg 90%
    21:00 +7°C° 1.4 mm 10 mps 745 mmHg 90%
    22:00 +7°C° 1.8 mm 9 mps 745 mmHg 91%
    23:00 +6°C° 1.8 mm 7 mps 745 mmHg 92%
    Show more